﻿測定場所 (Monitoring sites),日付 (Measurement date),時間 (Measurement time),線量率 最大値 (max) μGy/h,線量率 最小値 (min) μGy/h,線量率 平均値 (average) μGy/h,
大田 (Ota),2015-06-21,23:01～24:00,0.0427,0.0355,0.0388,
大田 (Ota),2015-06-21,22:01～23:00,0.0413,0.0360,0.0385,
大田 (Ota),2015-06-21,21:01～22:00,0.0413,0.0364,0.0389,
大田 (Ota),2015-06-21,20:01～21:00,0.0420,0.0358,0.0386,
大田 (Ota),2015-06-21,19:01～20:00,0.0426,0.0365,0.0393,
大田 (Ota),2015-06-21,18:01～19:00,0.0439,0.0370,0.0399,
大田 (Ota),2015-06-21,17:01～18:00,0.0467,0.0386,0.0432,
大田 (Ota),2015-06-21,16:01～17:00,0.0461,0.0395,0.0427,
大田 (Ota),2015-06-21,15:01～16:00,0.0458,0.0390,0.0423,
大田 (Ota),2015-06-21,14:01～15:00,0.0452,0.0376,0.0418,
大田 (Ota),2015-06-21,13:01～14:00,0.0440,0.0366,0.0402,
大田 (Ota),2015-06-21,12:01～13:00,0.0444,0.0369,0.0403,
大田 (Ota),2015-06-21,11:01～12:00,0.0432,0.0381,0.0402,
大田 (Ota),2015-06-21,10:01～11:00,0.0443,0.0365,0.0400,
大田 (Ota),2015-06-21,09:01～10:00,0.0437,0.0366,0.0397,
大田 (Ota),2015-06-21,08:01～09:00,0.0434,0.0368,0.0396,
大田 (Ota),2015-06-21,07:01～08:00,0.0433,0.0367,0.0392,
大田 (Ota),2015-06-21,06:01～07:00,0.0424,0.0361,0.0393,
大田 (Ota),2015-06-21,05:01～06:00,0.0422,0.0367,0.0391,
大田 (Ota),2015-06-21,04:01～05:00,0.0414,0.0368,0.0390,
大田 (Ota),2015-06-21,03:01～04:00,0.0419,0.0361,0.0393,
大田 (Ota),2015-06-21,02:01～03:00,0.0419,0.0360,0.0392,
大田 (Ota),2015-06-21,01:01～02:00,0.0431,0.0365,0.0393,
大田 (Ota),2015-06-21,00:01～01:00,0.0415,0.0363,0.0388,
大田 (Ota),2015-06-20,23:01～24:00,0.0424,0.0367,0.0390,
大田 (Ota),2015-06-20,22:01～23:00,0.0428,0.0358,0.0393,
大田 (Ota),2015-06-20,21:01～22:00,0.0424,0.0361,0.0392,
大田 (Ota),2015-06-20,20:01～21:00,0.0434,0.0359,0.0394,
大田 (Ota),2015-06-20,19:01～20:00,0.0429,0.0364,0.0391,
大田 (Ota),2015-06-20,18:01～19:00,0.0421,0.0361,0.0390,
大田 (Ota),2015-06-20,17:01～18:00,0.0424,0.0369,0.0393,
大田 (Ota),2015-06-20,16:01～17:00,0.0426,0.0362,0.0392,
大田 (Ota),2015-06-20,15:01～16:00,0.0424,0.0363,0.0390,
大田 (Ota),2015-06-20,14:01～15:00,0.0435,0.0362,0.0394,
大田 (Ota),2015-06-20,13:01～14:00,0.0418,0.0365,0.0389,
大田 (Ota),2015-06-20,12:01～13:00,0.0419,0.0361,0.0389,
大田 (Ota),2015-06-20,11:01～12:00,0.0430,0.0367,0.0391,
大田 (Ota),2015-06-20,10:01～11:00,0.0418,0.0363,0.0390,
大田 (Ota),2015-06-20,09:01～10:00,0.0412,0.0359,0.0386,
大田 (Ota),2015-06-20,08:01～09:00,0.0414,0.0361,0.0387,
大田 (Ota),2015-06-20,07:01～08:00,0.0435,0.0365,0.0393,
大田 (Ota),2015-06-20,06:01～07:00,0.0425,0.0360,0.0388,
大田 (Ota),2015-06-20,05:01～06:00,0.0426,0.0354,0.0386,
大田 (Ota),2015-06-20,04:01～05:00,0.0438,0.0356,0.0389,
大田 (Ota),2015-06-20,03:01～04:00,0.0419,0.0360,0.0384,
大田 (Ota),2015-06-20,02:01～03:00,0.0436,0.0362,0.0386,
大田 (Ota),2015-06-20,01:01～02:00,0.0424,0.0362,0.0387,
大田 (Ota),2015-06-20,00:01～01:00,0.0422,0.0365,0.0383,
大田 (Ota),2015-06-19,23:01～24:00,0.0412,0.0359,0.0381,
大田 (Ota),2015-06-19,22:01～23:00,0.0418,0.0359,0.0381,
大田 (Ota),2015-06-19,21:01～22:00,0.0419,0.0363,0.0383,
大田 (Ota),2015-06-19,20:01～21:00,0.0421,0.0362,0.0384,
大田 (Ota),2015-06-19,19:01～20:00,0.0439,0.0362,0.0395,
大田 (Ota),2015-06-19,18:01～19:00,0.0439,0.0368,0.0401,
大田 (Ota),2015-06-19,17:01～18:00,0.0444,0.0380,0.0410,
大田 (Ota),2015-06-19,16:01～17:00,0.0457,0.0381,0.0418,
大田 (Ota),2015-06-19,15:01～16:00,0.0444,0.0374,0.0412,
大田 (Ota),2015-06-19,14:01～15:00,0.0414,0.0364,0.0388,
大田 (Ota),2015-06-19,13:01～14:00,0.0438,0.0369,0.0398,
大田 (Ota),2015-06-19,12:01～13:00,0.0438,0.0381,0.0411,
大田 (Ota),2015-06-19,11:01～12:00,0.0441,0.0371,0.0409,
大田 (Ota),2015-06-19,10:01～11:00,0.0440,0.0361,0.0395,
大田 (Ota),2015-06-19,09:01～10:00,0.0430,0.0355,0.0393,
大田 (Ota),2015-06-19,08:01～09:00,0.0422,0.0358,0.0392,
大田 (Ota),2015-06-19,07:01～08:00,0.0420,0.0361,0.0390,
大田 (Ota),2015-06-19,06:01～07:00,0.0428,0.0365,0.0397,
大田 (Ota),2015-06-19,05:01～06:00,0.0438,0.0371,0.0398,
大田 (Ota),2015-06-19,04:01～05:00,0.0442,0.0363,0.0402,
大田 (Ota),2015-06-19,03:01～04:00,0.0446,0.0374,0.0409,
大田 (Ota),2015-06-19,02:01～03:00,0.0445,0.0372,0.0404,
大田 (Ota),2015-06-19,01:01～02:00,0.0432,0.0369,0.0396,
大田 (Ota),2015-06-19,00:01～01:00,0.0463,0.0393,0.0422,
大田 (Ota),2015-06-18,23:01～24:00,0.0474,0.0366,0.0414,
大田 (Ota),2015-06-18,22:01～23:00,0.0432,0.0358,0.0388,
大田 (Ota),2015-06-18,21:01～22:00,0.0418,0.0365,0.0387,
大田 (Ota),2015-06-18,20:01～21:00,0.0421,0.0360,0.0388,
大田 (Ota),2015-06-18,19:01～20:00,0.0415,0.0363,0.0389,
大田 (Ota),2015-06-18,18:01～19:00,0.0415,0.0357,0.0386,
大田 (Ota),2015-06-18,17:01～18:00,0.0418,0.0351,0.0387,
大田 (Ota),2015-06-18,16:01～17:00,0.0417,0.0363,0.0388,
大田 (Ota),2015-06-18,15:01～16:00,0.0420,0.0367,0.0392,
大田 (Ota),2015-06-18,14:01～15:00,0.0437,0.0375,0.0403,
大田 (Ota),2015-06-18,13:01～14:00,0.0432,0.0367,0.0395,
大田 (Ota),2015-06-18,12:01～13:00,0.0431,0.0368,0.0391,
大田 (Ota),2015-06-18,11:01～12:00,0.0425,0.0367,0.0391,
大田 (Ota),2015-06-18,10:01～11:00,0.0416,0.0367,0.0391,
大田 (Ota),2015-06-18,09:01～10:00,0.0428,0.0364,0.0391,
大田 (Ota),2015-06-18,08:01～09:00,0.0413,0.0361,0.0388,
大田 (Ota),2015-06-18,07:01～08:00,0.0437,0.0359,0.0394,
大田 (Ota),2015-06-18,06:01～07:00,0.0425,0.0368,0.0390,
大田 (Ota),2015-06-18,05:01～06:00,0.0427,0.0365,0.0391,
大田 (Ota),2015-06-18,04:01～05:00,0.0417,0.0362,0.0387,
大田 (Ota),2015-06-18,03:01～04:00,0.0431,0.0359,0.0386,
大田 (Ota),2015-06-18,02:01～03:00,0.0425,0.0366,0.0391,
大田 (Ota),2015-06-18,01:01～02:00,0.0419,0.0366,0.0390,
大田 (Ota),2015-06-18,00:01～01:00,0.0423,0.0358,0.0390,
大田 (Ota),2015-06-17,23:01～24:00,0.0438,0.0371,0.0394,
大田 (Ota),2015-06-17,22:01～23:00,0.0448,0.0364,0.0400,
大田 (Ota),2015-06-17,21:01～22:00,0.0436,0.0376,0.0404,
大田 (Ota),2015-06-17,20:01～21:00,0.0455,0.0390,0.0417,
大田 (Ota),2015-06-17,19:01～20:00,0.0479,0.0395,0.0430,
大田 (Ota),2015-06-17,18:01～19:00,0.0482,0.0370,0.0429,
大田 (Ota),2015-06-17,17:01～18:00,0.0423,0.0357,0.0395,
大田 (Ota),2015-06-17,16:01～17:00,0.0433,0.0366,0.0398,
大田 (Ota),2015-06-17,15:01～16:00,0.0422,0.0365,0.0393,
大田 (Ota),2015-06-17,14:01～15:00,0.0424,0.0367,0.0392,
大田 (Ota),2015-06-17,13:01～14:00,0.0435,0.0362,0.0392,
大田 (Ota),2015-06-17,12:01～13:00,0.0428,0.0366,0.0390,
大田 (Ota),2015-06-17,11:01～12:00,0.0437,0.0363,0.0394,
大田 (Ota),2015-06-17,10:01～11:00,0.0418,0.0361,0.0390,
大田 (Ota),2015-06-17,09:01～10:00,0.0419,0.0359,0.0388,
大田 (Ota),2015-06-17,08:01～09:00,0.0427,0.0367,0.0395,
大田 (Ota),2015-06-17,07:01～08:00,0.0456,0.0371,0.0410,
大田 (Ota),2015-06-17,06:01～07:00,0.0503,0.0401,0.0452,
大田 (Ota),2015-06-17,05:01～06:00,0.0479,0.0389,0.0439,
大田 (Ota),2015-06-17,04:01～05:00,0.0432,0.0372,0.0401,
大田 (Ota),2015-06-17,03:01～04:00,0.0444,0.0364,0.0402,
大田 (Ota),2015-06-17,02:01～03:00,0.0441,0.0368,0.0401,
大田 (Ota),2015-06-17,01:01～02:00,0.0444,0.0364,0.0399,
大田 (Ota),2015-06-17,00:01～01:00,0.0433,0.0367,0.0400,
大田 (Ota),2015-06-16,23:01～24:00,0.0431,0.0370,0.0399,
大田 (Ota),2015-06-16,22:01～23:00,0.0435,0.0358,0.0398,
大田 (Ota),2015-06-16,21:01～22:00,0.0435,0.0371,0.0399,
大田 (Ota),2015-06-16,20:01～21:00,0.0429,0.0368,0.0400,
大田 (Ota),2015-06-16,19:01～20:00,0.0443,0.0370,0.0399,
大田 (Ota),2015-06-16,18:01～19:00,0.0433,0.0366,0.0399,
大田 (Ota),2015-06-16,17:01～18:00,0.0428,0.0366,0.0399,
大田 (Ota),2015-06-16,16:01～17:00,0.0434,0.0369,0.0401,
大田 (Ota),2015-06-16,15:01～16:00,0.0456,0.0366,0.0405,
大田 (Ota),2015-06-16,14:01～15:00,0.0452,0.0373,0.0404,
大田 (Ota),2015-06-16,13:01～14:00,0.0443,0.0365,0.0407,
大田 (Ota),2015-06-16,12:01～13:00,0.0441,0.0376,0.0406,
大田 (Ota),2015-06-16,11:01～12:00,0.0432,0.0379,0.0408,
大田 (Ota),2015-06-16,10:01～11:00,0.0439,0.0375,0.0405,
大田 (Ota),2015-06-16,09:01～10:00,0.0437,0.0373,0.0408,
大田 (Ota),2015-06-16,08:01～09:00,0.0436,0.0384,0.0406,
大田 (Ota),2015-06-16,07:01～08:00,0.0440,0.0376,0.0407,
大田 (Ota),2015-06-16,06:01～07:00,0.0446,0.0377,0.0407,
大田 (Ota),2015-06-16,05:01～06:00,0.0453,0.0369,0.0407,
大田 (Ota),2015-06-16,04:01～05:00,0.0433,0.0369,0.0403,
大田 (Ota),2015-06-16,03:01～04:00,0.0446,0.0372,0.0399,
大田 (Ota),2015-06-16,02:01～03:00,0.0442,0.0383,0.0403,
大田 (Ota),2015-06-16,01:01～02:00,0.0425,0.0369,0.0400,
大田 (Ota),2015-06-16,00:01～01:00,0.0436,0.0360,0.0401,
大田 (Ota),2015-06-15,23:01～24:00,0.0425,0.0367,0.0398,
大田 (Ota),2015-06-15,22:01～23:00,0.0436,0.0370,0.0401,
大田 (Ota),2015-06-15,21:01～22:00,0.0427,0.0369,0.0400,
大田 (Ota),2015-06-15,20:01～21:00,0.0436,0.0370,0.0399,
大田 (Ota),2015-06-15,19:01～20:00,0.0428,0.0381,0.0401,
大田 (Ota),2015-06-15,18:01～19:00,0.0437,0.0372,0.0399,
大田 (Ota),2015-06-15,17:01～18:00,0.0430,0.0367,0.0399,
大田 (Ota),2015-06-15,16:01～17:00,0.0437,0.0369,0.0400,
大田 (Ota),2015-06-15,15:01～16:00,0.0433,0.0366,0.0403,
大田 (Ota),2015-06-15,14:01～15:00,0.0440,0.0382,0.0405,
大田 (Ota),2015-06-15,13:01～14:00,0.0435,0.0366,0.0405,
大田 (Ota),2015-06-15,12:01～13:00,0.0438,0.0368,0.0405,
大田 (Ota),2015-06-15,11:01～12:00,0.0447,0.0371,0.0402,
大田 (Ota),2015-06-15,10:01～11:00,0.0440,0.0366,0.0403,
大田 (Ota),2015-06-15,09:01～10:00,0.0437,0.0377,0.0402,
大田 (Ota),2015-06-15,08:01～09:00,0.0439,0.0372,0.0402,
大田 (Ota),2015-06-15,07:01～08:00,0.0437,0.0371,0.0401,
大田 (Ota),2015-06-15,06:01～07:00,0.0431,0.0371,0.0400,
大田 (Ota),2015-06-15,05:01～06:00,0.0430,0.0367,0.0398,
大田 (Ota),2015-06-15,04:01～05:00,0.0435,0.0367,0.0400,
大田 (Ota),2015-06-15,03:01～04:00,0.0426,0.0370,0.0397,
大田 (Ota),2015-06-15,02:01～03:00,0.0436,0.0368,0.0398,
大田 (Ota),2015-06-15,01:01～02:00,0.0424,0.0366,0.0394,
大田 (Ota),2015-06-15,00:01～01:00,0.0424,0.0362,0.0398,
